CAPE
0 0 0 0 0 0 0 0 0 0 0 0 0 0 0 0 0 0 0 10 19 21 13 11 8 5 4 4 4 3 2 1 0 0 0 0 0 0 0 0 0 0 0
0 0 0 0 0 0 0 0 0 0 0 0 0 0 0 0 0 0 0 0 11 12 21 10 7 5 5 2 1 1 1 1 0 0 0 0 0 0 0 0 0 0 0
0 0 0 0 0 0 0 0 0 0 0 0 0 0 0 0 0 0 0 0 0 3 14 17 12 7 8 4 0 0 0 0 0 0 0 0 0 0 0 0 0 0 0
0 0 0 0 0 0 0 0 0 0 0 0 0 0 0 0 0 0 0 0 0 0 0 4 10 11 11 9 5 4 2 0 0 0 0 0 0 0 0 0 0 0 0
0 0 0 0 12 6 16 2 3 0 0 0 0 0 0 0 0 0 0 0 0 0 0 0 2 10 23 23 9 13 12 10 2 1 2 0 0 0 0 0 0 0 0
0 0 16 37 57 36 66 19 9 0 0 0 0 0 0 0 0 0 0 0 0 0 0 0 0 0 1 27 34 16 21 12 14 13 11 7 4 1 1 1 0 0 0
0 0 20 29 63 85 37 7 1 0 0 0 0 0 0 0 0 0 0 0 0 0 0 0 0 0 0 0 26 23 28 28 32 26 16 9 5 14 5 0 0 0 0
0 0 1 4 45 39 46 10 27 29 6 0 0 0 0 0 0 0 0 0 0 0 0 0 0 0 0 0 0 13 22 52 68 77 92 45 25 23 19 15 1 6 10
0 0 0 3 11 26 18 17 43 34 39 8 0 1 0 0 0 0 0 0 0 0 0 0 0 0 0 0 0 0 0 0 50 137 126 110 86 70 62 72 42 10 19
0 0 0 0 6 5 8 56 52 44 38 12 19 37 23 10 17 0 0 0 0 0 0 0 0 0 0 0 0 0 0 0 0 19 130 149 134 125 116 97 110 101 98
0 0 0 0 17 47 81 120 104 99 54 36 24 2 1 10 18 0 0 0 0 0 0 0 0 0 0 0 0 0 0 0 0 0 11 99 124 111 116 115 140 145 132
0 0 0 2 1 22 77 85 119 107 77 14 30 31 12 8 19 8 3 0 0 0 0 0 0 0 0 0 0 0 0 0 0 0 0 0 43 68 46 49 33 23 28
0 0 4 9 20 12 38 51 89 85 57 37 16 16 28 20 34 36 18 14 12 0 1 0 0 0 0 0 0 0 0 0 0 0 0 0 0 2 1 7 1 0 0
0 5 0 18 15 22 72 59 45 48 42 28 31 11 8 8 17 20 28 8 1 0 0 3 0 0 0 0 0 0 0 0 0 0 0 0 0 0 0 0 0 0 0
0 0 0 0 3 14 16 21 39 36 37 33 19 7 10 2 9 8 7 27 24 11 1 0 0 0 0 0 0 0 0 0 0 0 0 0 0 0 0 0 0 0 0
0 0 2 0 0 4 15 23 12 18 29 26 17 5 6 1 3 12 15 24 34 37 34 0 0 0 0 0 0 0 0 0 0 0 0 0 0 0 0 0 0 0 0
0 0 0 3 2 0 2 8 8 9 13 9 6 1 1 0 0 5 7 12 15 21 21 0 0 0 0 0 0 0 0 0 0 0 0 0 0 0 0 0 0 0 0
0 0 0 0 0 0 0 0 0 0 1 0 1 6 0 1 0 0 2 2 7 0 0 0 3 0 0 0 0 0 0 0 0 0 0 0 0 0 0 0 0 0 0
0 0 0 0 0 0 0 0 0 0 0 0 0 0 0 0 0 0 0 0 5 5 5 13 8 2 0 0 0 0 0 0 0 0 0 0 0 0 0 0 0 0 0
0 0 0 0 0 0 0 0 0 0 0 0 0 0 0 0 0 0 0 0 9 21 22 6 4 0 0 0 0 0 0 0 0 0 0 0 0 0 0 0 0 0 0
0 0 0 0 0 0 0 0 0 0 0 0 0 0 0 0 0 0 0 0 3 23 27 8 0 0 0 0 0 0 0 0 0 0 0 0 0 0 0 0 0 0 0
0 0 0 0 0 0 0 0 0 0 0 0 0 0 0 0 0 0 0 0 5 11 12 4 0 0 0 0 0 0 0 0 0 1 0 0 0 0 0 2 5 0 0
0 0 0 0 0 0 0 0 0 0 0 0 0 0 0 0 0 0 0 0 0 0 1 0 0 0 0 0 0 0 0 0 0 1 0 0 0 1 4 5 0 0 0
35 29 23 10 6 4 0 0 0 0 0 0 0 0 0 0 0 0 1 0 0 0 0 0 0 0 0 0 0 0 0 0 0 2 2 0 1 0 0 0 0 0 0
33 37 39 18 6 23 10 0 0 0 0 0 0 0 0 0 0 1 0 0 0 0 2 4 3 2 2 2 1 0 0 0 0 0 0 0 0 0 0 0 0 0 0
8 9 1 0 0 0 0 0 0 0 0 0 0 0 0 0 1 0 0 0 0 0 0 0 0 0 0 0 1 0 0 0 0 0 0 0 0 0 0 0 0 0 0
CIN
0 0 0 0 0 0 0 0 0 0 0 0 0 0 0 0 0 0 0 -12 -4 -0 0 0 0 0 0 0 0 0 0 0 0 0 0 0 0 0 0 0 0 0 0
0 0 0 0 0 0 0 0 0 0 0 0 0 0 0 0 0 0 0 0 -13 -3 -0 0 0 0 0 0 -0 0 0 0 0 0 0 0 0 0 0 0 0 0 0
0 0 0 0 0 0 0 0 0 0 0 0 0 0 0 0 0 0 0 0 -0 -19 -7 -0 0 0 0 0 -0 0 -0 0 0 0 0 0 0 0 0 0 0 0 0
0 0 0 0 0 0 0 0 0 0 0 0 0 0 0 0 0 0 0 0 0 0 0 -8 -7 -130 -60 0 0 0 -0 0 0 0 0 0 0 0 0 0 0 0 0
0 0 0 0 -130 -124 -135 -24 -202 0 0 0 0 0 0 0 0 0 0 0 0 0 0 0 -19 -233 -219 -243 0 0 0 -0 0 -0 0 0 0 0 0 0 0 0 0
0 0 -68 -93 -112 -114 -113 -107 -141 0 0 0 0 0 0 0 0 0 0 0 0 0 0 0 0 0 -68 -148 -148 0 0 0 0 0 0 0 0 -0 0 0 -0 0 0
0 -70 -67 -86 -111 -113 -111 -137 -18 0 0 0 0 0 0 0 0 0 0 0 0 0 0 0 0 0 0 -1 -100 -68 0 0 -0 0 0 -0 0 0 0 0 0 -0 -0
0 0 -12 -47 -108 -104 -113 -133 -65 -70 -73 0 0 0 0 0 0 0 0 0 0 0 0 0 0 0 0 0 0 -45 -46 -37 -3 0 0 0 -0 0 0 0 0 -0 0
0 0 -49 -34 -102 -73 -86 -90 -88 -67 -76 -89 0 -79 0 0 0 0 0 0 0 0 0 0 0 0 0 0 0 0 0 0 -5 0 0 -0 -0 0 0 0 0 0 -0
0 0 -21 -41 -75 -74 -73 -108 -142 -98 -112 -107 -145 -121 -102 -132 -67 0 0 0 0 0 0 0 0 0 0 0 0 0 0 0 0 -19 -1 -0 0 -0 0 0 0 0 0
-21 0 0 0 -124 -135 -125 -98 -110 -93 -125 -154 -114 -102 -57 -124 -95 0 0 -25 0 0 0 0 0 0 0 0 0 0 0 0 0 0 -27 -2 -0 0 0 0 0 0 0
-7 0 -99 -37 -44 -143 -113 -108 -105 -102 -135 -143 -109 -117 -111 -61 -86 -75 -20 0 0 0 0 0 0 0 0 0 0 0 0 0 0 0 0 -1 -5 -0 -2 -1 -1 -5 -2
0 -0 -44 -91 -121 -121 -104 -124 -113 -112 -157 -129 -117 -76 -96 -100 -121 -83 -63 -65 -51 -46 -29 0 0 0 0 0 0 0 0 0 0 0 0 0 0 -7 -4 -2 -3 0 0
0 -81 0 -76 -101 -129 -72 -110 -149 -144 -171 -166 -133 -72 -102 -146 -149 -111 -68 -55 -70 -9 0 -95 0 0 0 0 0 0 0 0 0 0 0 0 0 0 0 0 0 0 0
0 0 -10 -20 -111 -121 -107 -123 -117 -138 -121 -149 -113 -81 -124 -163 -160 -150 -132 -90 -43 -21 -14 0 0 0 0 0 0 0 0 0 0 0 0 0 0 0 0 0 0 0 0
0 0 -95 -21 -49 -109 -117 -121 -136 -136 -128 -140 -128 -130 -148 -154 -179 -162 -108 -97 -84 -38 -9 0 0 0 0 0 0 0 0 0 0 0 0 0 0 0 0 0 0 0 0
0 0 -10 -85 -58 0 -73 -121 -103 -139 -142 -142 -146 -138 -130 -51 0 -139 -118 -94 -76 -63 -27 0 0 0 0 0 0 0 0 0 0 0 0 0 0 0 0 0 0 0 0
0 0 0 0 0 0 0 0 0 0 -142 -53 -136 -142 0 -150 -8 -102 -96 -83 -82 -5 -3 -35 -75 0 0 0 0 0 0 0 0 0 0 0 0 0 0 0 0 0 0
0 0 0 0 0 0 0 0 0 0 0 0 0 0 0 0 0 0 0 0 -109 -98 -65 -23 -23 -30 0 0 0 0 0 0 0 0 0 0 0 0 0 0 0 0 0
0 0 0 0 0 0 0 0 0 0 0 0 0 0 0 0 0 0 0 0 -93 -33 -39 -28 -23 -11 0 0 0 0 0 0 0 0 0 0 0 0 0 0 0 0 0
0 0 0 0 0 0 0 0 0 0 0 0 0 0 0 0 0 0 0 0 -52 -48 -23 -39 0 0 0 0 0 0 0 0 0 0 0 0 0 0 0 0 0 -5 0
0 0 0 0 0 0 0 0 0 0 0 0 0 0 0 0 0 0 0 0 -108 -79 -63 -63 0 0 0 0 0 0 0 0 0 0 0 0 0 0 0 -0 0 0 0
0 0 0 0 0 0 0 0 0 0 0 0 0 0 0 0 0 0 0 0 0 0 0 0 0 0 0 0 0 0 0 0 0 0 0 0 0 0 0 0 0 0 0
-342 -331 -333 -319 -158 -176 0 0 0 0 0 0 0 0 0 0 0 0 0 0 0 0 0 0 0 0 0 0 0 0 0 0 0 0 0 0 0 0 0 0 0 0 0
-322 -334 -288 -296 -325 -322 -316 0 0 0 0 0 0 0 0 0 0 0 0 0 0 0 0 0 0 0 0 0 0 0 0 0 0 0 0 0 0 0 0 0 0 0 0
-273 -235 -187 0 0 0 0 0 0 0 0 0 0 0 0 0 0 0 0 0 0 0 0 0 0 0 0 0 0 0 0 0 0 0 0 0 0 0 0 0 0 0 0
Wind_Speed
10 10 9 7 5 6 7 7 5 5 5 4 2 11 10 10 12 7 4 12 13 15 17 16 16 16 15 15 14 15 15 14 14 14 14 13 12 11 10 10 10 10 9
10 9 10 9 5 6 6 6 6 5 4 4 4 10 11 10 12 10 5 6 12 13 15 16 16 16 16 15 14 14 14 14 13 13 12 12 11 10 9 8 8 7 7
14 13 9 10 7 6 9 5 5 5 5 4 5 7 10 10 11 11 8 5 7 11 12 14 15 16 16 15 15 14 13 13 13 13 13 12 11 10 9 7 7 6 5
12 12 11 9 9 7 7 6 6 7 6 5 3 5 6 9 10 12 10 7 5 6 9 13 16 16 17 17 17 16 15 15 14 13 12 13 12 10 10 10 9 8 7
13 11 9 8 9 8 6 7 5 8 6 5 5 4 5 8 10 9 11 10 9 7 6 10 13 14 16 17 18 18 18 17 16 15 14 13 13 13 13 12 12 11 10
12 11 6 8 8 8 5 7 9 4 6 7 7 5 4 5 6 8 10 8 9 10 10 10 8 9 14 18 19 20 20 19 18 18 18 17 17 17 17 15 15 14 14
11 11 7 6 4 8 6 10 5 7 3 5 5 3 1 4 5 5 6 7 9 10 9 9 7 7 8 18 20 22 22 22 22 23 21 21 20 18 18 19 18 17 18
10 8 9 8 6 4 3 5 6 4 3 5 5 3 2 2 2 4 3 6 8 7 9 10 10 11 9 8 14 23 24 23 22 22 24 22 21 21 22 21 21 21 20
9 10 11 10 11 10 9 7 6 7 5 2 10 6 3 4 2 2 5 5 6 5 6 6 9 10 11 9 12 17 22 22 22 22 21 21 22 22 22 22 22 22 22
6 6 8 8 12 12 10 6 5 4 5 5 2 1 3 4 3 1 2 4 5 7 7 6 8 10 12 11 14 14 16 20 23 24 23 21 21 23 24 23 24 23 24
9 9 9 9 7 5 6 7 6 6 3 4 4 3 2 2 2 3 3 3 2 4 7 8 9 10 11 10 9 12 18 18 22 24 25 23 21 20 21 23 22 22 22
5 8 7 8 7 5 7 7 6 7 5 4 3 3 4 3 4 3 2 4 4 5 6 7 8 9 8 9 11 14 17 18 19 22 23 25 23 22 20 19 19 21 20
3 6 6 8 7 8 6 9 9 8 7 5 5 5 5 7 4 3 3 3 5 4 4 5 8 8 7 6 9 14 15 17 18 19 20 23 24 22 20 19 19 20 20
8 7 7 8 8 7 8 6 6 6 8 7 6 12 8 6 5 5 4 5 3 4 4 7 4 8 7 6 11 15 13 18 20 19 21 22 21 18 16 15 15 16 16
7 7 6 8 8 8 7 7 7 9 9 10 14 12 8 6 4 4 6 6 7 8 9 5 6 7 8 8 14 14 15 19 20 20 18 16 17 17 16 15 14 13 14
11 10 9 10 10 10 10 10 7 7 10 9 10 13 12 9 7 6 8 7 8 10 13 7 7 7 8 9 13 15 15 18 20 21 19 18 18 17 17 17 16 15 14
15 15 16 14 15 15 14 13 13 12 13 13 13 13 14 11 7 8 9 9 10 10 13 12 8 8 8 12 9 10 11 12 9 19 18 18 17 17 17 16 14 12 12
16 16 15 17 16 16 16 18 18 16 16 17 16 14 15 10 13 13 10 13 12 12 11 17 13 8 8 8 10 8 7 7 8 13 16 18 20 16 13 12 11 10 10
14 16 17 17 18 18 18 18 17 17 18 18 16 15 16 13 15 13 13 13 12 10 10 12 14 8 8 3 5 4 9 10 8 13 19 20 17 15 12 9 8 8 10
17 16 16 16 17 18 19 19 19 20 20 18 16 16 18 18 18 17 14 15 14 12 12 11 12 12 7 4 7 8 6 7 8 6 6 7 12 14 13 12 10 9 12
16 17 17 17 18 18 15 20 20 19 19 19 18 18 19 19 20 20 12 14 14 13 12 12 12 12 6 4 8 6 10 6 2 2 2 3 4 3 2 1 4 14 16
17 16 17 18 18 15 19 20 18 17 18 19 19 19 18 17 20 21 22 20 19 18 18 14 13 15 15 11 6 4 3 4 3 3 2 2 3 3 2 2 15 18 12
16 18 18 16 18 18 17 19 20 17 16 18 18 16 14 12 13 14 13 9 10 8 2 10 14 12 4 4 6 4 3 3 2 1 2 1 2 2 3 6 11 7 5
17 17 17 18 16 15 14 17 18 17 18 18 16 16 15 14 12 10 8 8 7 6 2 2 5 5 5 6 5 4 4 6 4 3 3 2 0 2 4 4 10 9 5
14 15 13 13 15 17 14 18 13 13 15 16 1 3 4 5 9 18 12 12 10 9 14 22 23 22 20 18 11 7 5 5 2 2 1 2 3 3 4 4 4 3 5
13 10 7 2 7 4 3 2 9 6 6 5 3 4 4 5 12 14 13 14 12 8 8 10 10 14 15 15 17 9 4 6 2 1 2 1 2 3 3 2 2 3 3
Wind_Direction
137 140 134 129 132 144 148 161 148 159 165 186 170 122 129 132 133 129 125 150 154 154 154 153 151 150 149 151 150 148 147 145 145 140 137 132 130 125 125 120 114 111 111
147 134 141 137 145 157 166 166 159 159 174 180 157 116 135 140 136 133 136 155 154 165 165 164 163 161 161 163 163 162 163 160 159 155 151 149 151 144 144 141 132 126 119
149 138 147 152 155 168 168 174 168 171 136 173 134 124 143 146 142 147 147 160 169 174 172 172 173 173 174 176 176 174 177 175 179 178 171 171 174 170 166 162 160 160 155
152 145 151 162 158 173 170 174 171 155 152 151 137 142 141 142 152 156 159 168 169 180 189 184 184 186 188 189 191 192 191 196 197 196 190 192 192 195 195 194 192 195 195
160 148 159 168 162 179 162 182 169 146 154 158 159 149 134 142 155 158 171 179 182 185 189 201 196 195 197 199 200 204 203 206 208 211 210 207 208 209 215 211 213 214 215
164 164 175 169 167 175 167 166 165 148 161 164 162 151 151 153 159 168 178 182 190 192 194 199 202 208 205 208 211 213 214 214 213 218 217 218 216 218 220 221 222 224 227
169 172 178 148 136 161 175 165 155 153 146 153 110 61 79 177 183 183 163 186 195 198 196 198 199 207 214 213 215 223 224 225 219 215 218 218 220 221 224 224 227 229 233
183 177 169 160 155 131 132 196 145 134 142 152 139 116 125 338 262 221 210 191 193 188 196 202 199 205 208 212 219 222 228 235 233 227 222 219 218 219 222 221 225 230 233
197 184 168 163 164 164 191 192 150 145 148 152 149 148 125 208 148 219 220 211 209 201 206 191 201 204 207 210 216 221 224 229 238 240 237 228 224 222 223 224 225 228 233
193 163 153 156 166 174 176 168 154 153 141 154 114 148 121 146 155 200 275 227 203 217 211 215 205 209 209 212 214 214 215 218 226 235 242 239 228 225 225 225 227 230 236
197 188 174 163 164 159 161 156 158 148 147 144 134 138 153 168 161 146 237 255 225 215 216 212 213 222 221 215 212 214 212 212 221 232 235 239 235 226 220 221 224 230 238
193 191 167 171 175 170 166 174 167 171 154 163 132 182 159 179 188 159 178 239 210 246 218 220 216 222 219 223 224 216 211 214 215 222 230 232 234 226 217 217 222 230 239
175 184 163 173 173 185 181 177 177 183 155 148 168 224 213 220 162 179 168 231 239 240 257 229 228 229 220 212 225 223 221 223 225 222 221 225 223 225 223 225 229 238 243
194 192 181 168 174 172 197 178 174 170 165 166 187 226 218 218 190 189 205 190 261 250 225 241 223 220 226 218 231 232 235 224 226 220 218 217 214 211 213 218 224 232 237
198 197 189 183 183 186 188 186 183 179 183 186 201 219 215 228 230 212 210 212 228 256 252 244 232 214 222 216 231 232 230 231 221 220 212 205 197 202 204 205 203 209 221
196 193 192 196 201 204 200 198 196 191 192 197 201 207 214 224 214 209 225 224 220 236 254 238 225 221 210 223 227 229 233 224 212 212 201 199 199 196 196 199 201 201 209
200 194 195 194 198 204 207 209 213 206 208 212 214 209 212 211 211 221 224 229 231 225 242 257 242 235 222 225 229 221 226 226 222 210 201 199 200 193 195 198 197 197 207
204 199 199 205 204 205 206 208 213 213 213 217 217 216 221 213 220 222 219 228 229 228 232 247 247 239 231 232 229 211 218 219 205 195 199 203 201 193 196 193 191 194 203
202 206 207 207 210 213 216 216 216 218 222 220 216 211 219 210 220 223 221 227 232 236 235 246 255 249 226 195 213 227 212 223 218 205 197 196 194 189 181 173 187 202 228
210 206 208 209 212 216 220 222 220 221 223 226 221 222 227 226 226 228 226 226 228 228 234 240 253 255 232 213 232 227 220 215 217 220 175 176 177 173 171 175 193 231 236
214 218 218 220 220 220 218 219 220 222 225 229 229 229 230 227 222 224 223 229 226 227 234 242 245 252 219 193 212 219 234 213 90 141 110 107 119 89 84 138 231 245 236
219 219 220 221 223 226 225 216 221 225 227 228 230 231 232 228 229 224 220 222 215 219 229 235 244 247 243 229 210 181 122 143 179 7 105 99 91 109 88 227 240 236 240
212 220 226 224 227 229 218 215 213 227 230 232 232 232 232 230 218 228 225 122 78 68 15 244 246 254 255 171 135 117 116 95 64 101 71 109 86 140 203 230 238 252 297
212 217 219 223 227 235 211 215 210 222 231 234 233 231 229 231 210 191 128 105 85 52 55 104 111 100 95 80 85 84 89 96 82 82 52 79 81 245 230 241 245 250 247
214 219 222 219 220 233 211 225 205 223 233 238 103 4 245 198 175 148 141 129 111 97 85 92 91 84 79 69 70 94 72 93 74 53 60 100 187 217 220 223 227 154 17
225 225 220 88 46 179 51 209 200 220 195 149 100 55 47 133 131 141 139 141 128 127 116 93 85 69 72 60 65 64 78 106 105 117 23 23 352 33 311 351 78 48 10